Wiley Ford, WV

10:51 AM EST on February 07, 2016 (GMT -0500)
Greater Cumberland Regional

Weather History for KCBE - February, 2014

Change the Weather History Date:

Sunday, February 23, 2014

  Actual Average (KMRB) Record (KMRB)
Temperature  
Mean Temperature 42 °F 35 °F  
Max Temperature 55 °F 45 °F 72 °F (1977)
Min Temperature 28 °F 26 °F -1 °F (1964)
Degree Days  
Heating Degree Days 24 30  
Month to date heating degree days 730  
Since 1 July heating degree days 3813  
Cooling Degree Days 0 0  
Month to date cooling degree days 0  
Year to date cooling degree days 0  
Moisture  
Dew Point 30 °F    
Average Humidity 68    
Maximum Humidity 93    
Minimum Humidity 38    
Precipitation  
Precipitation 0.00 in 0.09 in 1.16 in (1998)
Month to date precipitation 1.90  
Year to date precipitation 4.34  
Sea Level Pressure  
Sea Level Pressure 30.02 in    
Wind  
Wind Speed 3 mph (NNW)    
Max Wind Speed 15 mph    
Max Gust Speed 25 mph    
Visibility 10 miles    
Events      
T = Trace of Precipitation, MM = Missing Value Source: NWS Daily Summary

Daily Weather History Graph

Daily Weather History Graph

Search for Another Location

Airport or City:

Trip Planner

Search our weather history database for the weather conditions in past years. The results will help you decide how hot, cold, wet, or windy it might be!

Date:

Astronomy

Feb. 23, 2014 Rise Set
Actual Time 6:56 AM EST 6:00 PM EST
Civil Twilight 6:29 AM EST 6:27 PM EST
Nautical Twilight 5:58 AM EST 6:59 PM EST
Astronomical Twilight 5:27 AM EST 7:30 PM EST
Moon 1:52 AM EST (2/23) 12:02 PM EST (2/23)
Length of Visible Light 11h 58m
Length of Day
11h 03m
Last Quarter, 39% of the Moon is Illuminated
Feb 23
Last Quarter
Mar 1
New
Mar 8
First Quarter
Mar 16
Full
Mar 23
Last Quarter

Hourly Weather History & Observations

Time (EST) Temp. Windchill Dew Point Humidity Pressure Visibility Wind Dir Wind Speed Gust Speed Precip Events Conditions
12:08 AM 33.8 °F - 26.6 °F 75% 30.02 in 10.0 mi Calm Calm - N/A   Clear
12:28 AM 32.0 °F - 26.6 °F 80% 30.02 in 10.0 mi Calm Calm - N/A   Clear
12:48 AM 32.0 °F - 28.4 °F 87% 30.02 in 10.0 mi Calm Calm - N/A   Clear
1:08 AM 32.0 °F 28.7 °F 28.4 °F 87% 30.02 in 10.0 mi NNE 3.5 mph - N/A   Clear
1:28 AM 32.0 °F - 28.4 °F 87% 30.02 in 10.0 mi Calm Calm - N/A   Clear
1:48 AM 32.0 °F 25.6 °F 28.4 °F 87% 30.02 in 10.0 mi North 6.9 mph - N/A   Clear
2:08 AM 32.0 °F 26.4 °F 28.4 °F 87% 30.02 in 10.0 mi NNW 5.8 mph - N/A   Clear
2:28 AM 33.8 °F 28.6 °F 28.4 °F 81% 30.02 in 10.0 mi NW 5.8 mph - N/A   Clear
2:48 AM 32.0 °F 28.7 °F 28.4 °F 87% 30.02 in 10.0 mi North 3.5 mph - N/A   Clear
3:08 AM 32.0 °F 27.5 °F 26.6 °F 80% 30.03 in 10.0 mi North 4.6 mph - N/A   Clear
3:28 AM 32.0 °F 26.4 °F 26.6 °F 80% 30.03 in 10.0 mi North 5.8 mph - N/A   Clear
3:49 AM 32.0 °F 28.7 °F 26.6 °F 80% 30.04 in 10.0 mi North 3.5 mph - N/A   Clear
4:09 AM 33.8 °F 30.8 °F 26.6 °F 75% 30.05 in 10.0 mi NNW 3.5 mph - N/A   Clear
4:29 AM 33.8 °F 29.6 °F 26.6 °F 75% 30.05 in 10.0 mi North 4.6 mph - N/A   Clear
4:49 AM 33.8 °F 29.6 °F 26.6 °F 75% 30.05 in 10.0 mi NW 4.6 mph - N/A   Clear
5:09 AM 33.8 °F 30.8 °F 26.6 °F 75% 30.05 in 10.0 mi North 3.5 mph - N/A   Clear
5:29 AM 32.0 °F - 26.6 °F 80% 30.05 in 10.0 mi Calm Calm - N/A   Clear
5:49 AM 32.0 °F 28.7 °F 26.6 °F 80% 30.06 in 10.0 mi NNW 3.5 mph - N/A   Clear
6:09 AM 32.0 °F - 26.6 °F 80% 30.06 in 10.0 mi Calm Calm - N/A   Clear
6:29 AM 28.4 °F 24.6 °F 23.0 °F 80% 30.06 in 10.0 mi SW 3.5 mph - N/A   Clear
6:49 AM 28.4 °F - 26.6 °F 93% 30.07 in 10.0 mi Calm Calm - N/A   Clear
7:09 AM 30.2 °F 26.7 °F 26.6 °F 86% 30.07 in 10.0 mi NNW 3.5 mph - N/A   Clear
7:29 AM 28.4 °F - 26.6 °F 93% 30.06 in 10.0 mi Calm Calm - N/A   Clear
7:49 AM 28.4 °F - 26.6 °F 93% 30.06 in 10.0 mi Calm Calm - N/A   Clear
8:09 AM 30.2 °F - 28.4 °F 93% 30.07 in 10.0 mi Calm Calm - N/A   Clear
8:29 AM 32.0 °F - 30.2 °F 93% 30.07 in 10.0 mi Calm Calm - N/A   Clear
8:49 AM 33.8 °F 30.8 °F 30.2 °F 87% 30.07 in 10.0 mi South 3.5 mph - N/A   Clear
9:09 AM 35.6 °F - 30.2 °F 81% 30.07 in 10.0 mi Calm Calm - N/A   Clear
9:29 AM 37.4 °F - 30.2 °F 75% 30.06 in 10.0 mi Calm Calm - N/A   Clear
9:49 AM 39.2 °F - 30.2 °F 70% 30.07 in 10.0 mi Calm Calm - N/A   Clear
10:09 AM 41.0 °F - 32.0 °F 70% 30.06 in 10.0 mi Calm Calm - N/A   Clear
10:29 AM 42.8 °F - 32.0 °F 66% 30.05 in 10.0 mi Calm Calm - N/A   Clear
10:49 AM 42.8 °F - 32.0 °F 66% 30.03 in 10.0 mi Calm Calm - N/A   Clear
11:09 AM 46.4 °F - 32.0 °F 57% 30.02 in 10.0 mi Calm Calm - N/A   Clear
11:29 AM 48.2 °F - 32.0 °F 54% 30.02 in 10.0 mi NE 3.5 mph - N/A   Clear
11:49 AM 50.0 °F - 30.2 °F 47% 30.01 in 10.0 mi Calm Calm - N/A   Clear
12:08 PM 50.0 °F - 30.2 °F 47% 30.01 in 10.0 mi Calm Calm - N/A   Clear
12:30 PM 51.8 °F - 32.0 °F 47% 30.00 in 10.0 mi SSE 3.5 mph - N/A   Clear
12:50 PM 51.8 °F - 30.2 °F 44% 29.98 in 10.0 mi Calm Calm - N/A   Clear
1:10 PM 53.6 °F - 30.2 °F 41% 29.98 in 10.0 mi Calm Calm - N/A   Clear
1:30 PM 53.6 °F - 30.2 °F 41% 29.97 in 10.0 mi Calm Calm - N/A   Clear
1:50 PM 53.6 °F - 30.2 °F 41% 29.95 in 10.0 mi SSE 4.6 mph - N/A   Clear
2:10 PM 55.4 °F - 32.0 °F 41% 29.95 in 10.0 mi SSW 4.6 mph - N/A   Clear
2:30 PM 55.4 °F - 30.2 °F 38% 29.95 in 10.0 mi Calm Calm - N/A   Clear
2:50 PM 55.4 °F - 30.2 °F 38% 29.93 in 10.0 mi NE 4.6 mph - N/A   Clear
3:10 PM 53.6 °F - 28.4 °F 38% 29.93 in 10.0 mi Calm Calm - N/A   Clear
3:30 PM 53.6 °F - 28.4 °F 38% 29.94 in 10.0 mi NW 5.8 mph - N/A   Scattered Clouds
3:50 PM 51.8 °F - 28.4 °F 41% 29.94 in 10.0 mi NNW 10.4 mph - N/A   Scattered Clouds
4:10 PM 51.8 °F - 28.4 °F 41% 29.95 in 10.0 mi NW 12.7 mph 18.4 mph N/A   Scattered Clouds
4:30 PM 50.0 °F - 30.2 °F 47% 29.96 in 10.0 mi NNW 11.5 mph 21.9 mph N/A   Mostly Cloudy
4:50 PM 48.2 °F - 30.2 °F 50% 29.96 in 10.0 mi NNW 13.8 mph 25.3 mph N/A   Mostly Cloudy
5:10 PM 46.4 °F 40.1 °F 32.0 °F 57% 29.97 in 10.0 mi North 15.0 mph 25.3 mph N/A   Mostly Cloudy
5:30 PM 44.6 °F 40.2 °F 33.8 °F 66% 29.97 in 10.0 mi North 8.1 mph 21.9 mph N/A   Mostly Cloudy
5:50 PM 44.6 °F 39.7 °F 33.8 °F 66% 29.97 in 10.0 mi NE 9.2 mph - N/A   Overcast
6:10 PM 44.6 °F 41.4 °F 33.8 °F 66% 30.00 in 10.0 mi North 5.8 mph 16.1 mph N/A   Mostly Cloudy
6:30 PM 44.6 °F 40.7 °F 33.8 °F 66% 30.01 in 10.0 mi NNW 6.9 mph - N/A   Mostly Cloudy
6:50 PM 44.6 °F 38.8 °F 33.8 °F 66% 30.01 in 10.0 mi North 11.5 mph 17.3 mph N/A   Mostly Cloudy
7:10 PM 42.8 °F 37.5 °F 33.8 °F 70% 30.00 in 10.0 mi NNW 9.2 mph - N/A   Scattered Clouds
7:30 PM 42.8 °F 36.6 °F 33.8 °F 70% 30.01 in 10.0 mi NW 11.5 mph - N/A   Mostly Cloudy
7:50 PM 42.8 °F 37.5 °F 32.0 °F 66% 30.01 in 10.0 mi NW 9.2 mph 20.7 mph N/A   Scattered Clouds
8:10 PM 42.8 °F 38.0 °F 32.0 °F 66% 30.02 in 10.0 mi NNW 8.1 mph - N/A   Mostly Cloudy
8:30 PM 41.0 °F 35.8 °F 32.0 °F 70% 30.02 in 10.0 mi NNW 8.1 mph - N/A   Mostly Cloudy
8:51 PM 41.0 °F 38.0 °F 32.0 °F 70% 30.02 in 10.0 mi NW 4.6 mph - N/A   Scattered Clouds
9:11 PM 41.0 °F 36.4 °F 32.0 °F 70% 30.02 in 10.0 mi NW 6.9 mph - N/A   Scattered Clouds
9:31 PM 39.2 °F 35.9 °F 32.0 °F 75% 30.02 in 10.0 mi NW 4.6 mph - N/A   Scattered Clouds
9:51 PM 39.2 °F - 32.0 °F 75% 30.02 in 10.0 mi Calm Calm - N/A   Scattered Clouds
10:11 PM 39.2 °F 35.9 °F 32.0 °F 75% 30.02 in 10.0 mi NNW 4.6 mph - N/A   Mostly Cloudy
10:31 PM 39.2 °F 34.2 °F 30.2 °F 70% 30.02 in 10.0 mi NNE 6.9 mph - N/A   Mostly Cloudy
10:51 PM 37.4 °F 33.8 °F 30.2 °F 75% 30.01 in 10.0 mi ENE 4.6 mph - N/A   Overcast
11:11 PM 37.4 °F 33.8 °F 28.4 °F 70% 30.02 in 10.0 mi South 4.6 mph - N/A   Overcast
11:31 PM 37.4 °F - 26.6 °F 65% 30.02 in 10.0 mi Calm Calm - N/A   Overcast
11:51 PM 37.4 °F - 26.6 °F 65% 30.02 in 10.0 mi Calm Calm - N/A   Overcast